Weather

Vsebine: Paragliding sitesCurrent conditionsCurrent conditions (amateur)Radar rainfal imageMeteo stationsPanoramic cameras


Current conditions (official report)

Show amateur stations

Click on a specific station to see its location

Location Weather conditions Temperature Wind Air pressure Last updated Geopedia
    °C direction speed (m/s) gusts (m/s) hPa    
Babno Polje 3   - - 2021-04-18 04:43:00
Babno Polje (756 m) 5   - - 2016-01-12 07:40:00
Bilje Nova Gorica 9   3 5 1016 2021-04-18 04:44:00
Bilje pri Novi Gorici 9   4 - 1016 2021-04-18 04:42:00
Blegoš -1   - - 2021-04-18 04:43:00
Bohinjska Češnjica 2   - - 2021-04-18 04:43:00
Boršt Gorenja vas 3   - 1 2021-04-18 04:44:00
Bovec 4   1 2 1017 2021-04-18 04:35:00
Breginj 1   - - 2021-04-18 04:43:00
Bukovski vrh 3   - - 2021-04-18 04:43:00
Celje 7   2 - 1017 2021-04-18 04:42:00
Cerkniško jezero 4   - - 2021-04-18 04:43:00
Črnomelj 6   - - 1017 2021-04-18 04:42:00
Davča 0   - - 2021-04-18 04:43:00
Dobliče Črnomelj 7   - 1 1017 2021-04-18 04:32:00
Dolenje Ajdovščina 9   3 8 2021-04-18 04:34:00
Gačnik 6   - 1 2021-04-18 04:43:00
Godnje 5   2 5 2021-04-18 04:43:00
Gornji Grad 5   - - 2021-04-18 04:43:00
Hočko Pohorje 7   - - 2021-04-17 16:43:00
Hrastnik 6   - - 2021-04-18 04:43:00
Idrija 5   - - 2021-04-18 04:43:00
Ilirska Bistrica 6   2 7 2021-04-18 04:35:00
Iskrba 4   1 4 2021-04-18 04:43:00
Jeronim 3   - - 2021-04-18 04:43:00
Jeruzalem 5   - - 2021-04-18 04:43:00
Jezersko 3   - - 2021-04-18 04:44:00
Juršče   - - 2016-09-13 14:33:00
Kamniška Bistrica 3   - - 2021-04-18 04:43:00
Kanin -8   4 12 2021-04-18 04:43:00
Katarina nad Ljubljano 5   - - 2021-04-17 20:42:00
Kočevje 5   1 3 2021-04-18 04:43:00
Koper Kapitanija 10   4 6 1016 2021-04-18 04:37:00
Korensko sedlo 0   - - 2021-04-18 04:43:00
Kraj. park Goričko 1   2 5 2021-01-15 12:04:00
Krajinski park Goričko 4   3 6 2021-04-18 04:34:00
Kranj 3   - - 2021-04-18 04:43:00
Kredarica -9   5 9 2021-04-18 04:43:00
Krn 1   - - 2021-04-18 04:43:00
Krško 7   2 6 1017 2021-04-18 04:38:00
Krvavec -4   1 3 2021-04-18 04:43:00
Kubed 7   - - 2021-04-18 04:43:00
Kum -2   1 4 2021-04-18 04:43:00
Lendava 6   3 7 1017 2021-04-18 04:34:00
Let. E. Rusjana Maribor 2   1 3 1020 2021-01-15 12:04:00
Let. J. Pučnika Lj. 0   2 3 1011 2015-11-26 11:03:00
Let. J. Pučnika Ljubljana -1   1 2 1020 2021-01-15 12:03:00
Letališče Cerklje ob Krki 6   1 - 1017 2021-04-18 04:42:00
Letališče Edvarda Rusjana Maribor 6   2 - 1018 2021-04-18 04:42:00
Letališče Jožeta Pučnika Ljubljana 2   1 1 1017 2021-04-18 04:43:00
Letališče Lesce 3   - - 1017 2021-04-18 04:42:00
Letališče Portorož 9   2 - 1015 2021-04-18 04:42:00
Lisca 0   4 7 2021-04-18 04:44:00
Lisca (943 m) 9   5 12 2016-03-29 14:02:00
Litija 7   - - 2021-04-18 04:43:00
Ljubljana 7   1 2 1017 2021-04-18 04:44:00
Logarska dolina 1   - - 2021-04-18 04:43:00
Logatec 5   - - 2021-04-18 04:43:00
Luka Koper 9   2 6 2021-04-18 04:34:00
Malkovec 5   1 2 1018 2021-04-18 04:35:00
Maribor 6   1 1 2021-04-18 04:44:00
Maribor - Tabor -3   1 2 2020-01-14 09:33:00
Marinča vas 5   - - 2021-04-18 04:43:00
Metlika 7   - - 2021-04-18 04:43:00
Mežica 4   - - 2021-04-18 04:47:00
Miklavž na Gorjancih 0   - - 2021-04-18 04:43:00
Murska Sobota 6   2 4 1018 2021-04-18 04:43:00
Nanos -2   9 13 2021-04-18 04:43:00
Nova Gorica 9   - - 2021-04-18 04:43:00
Nova vas - Bloke 2   - - 2021-04-18 04:43:00
Novo mesto 6   2 4 1016 2021-04-18 04:43:00
Osilnica 6   - - 2021-04-18 04:43:00
Otlica 1   4 8 2021-04-18 04:43:00
Otlica (965 m) 7   4 7 2016-03-31 08:24:00
Park Škocj. jame 3   3 7 1018 2021-01-15 12:02:00
Park Škocjanske jame 5   2 6 1016 2021-04-18 04:32:00
Pasja ravan 1   2 4 2021-04-18 04:43:00
Pavličevo sedlo -1   - - 2021-04-18 04:43:00
Piran - oceanografska boja 10   7 9 2021-04-18 04:38:00
Piran-ocean. boja 5   8 9 2021-01-15 11:08:00
Planina pod Golico 3   - - 2021-04-18 04:43:00
Podčetrtek 6   1 2 1017 2021-04-18 04:34:00
Podnanos 8   4 9 2021-04-18 04:43:00
Postojna 4   4 9 1016 2021-04-18 04:43:00
Predel 1   - - 2021-04-18 04:43:00
Ptuj 6   1 1 2021-04-18 04:43:00
Ptuj - Terme -2   2 3 2017-01-19 14:35:00
Radegunda 3   - - 2021-04-18 04:43:00
Radenci 21   - - 1016 2020-09-22 11:34:00
Rateče 0   - - 2021-04-18 04:42:00
Rateče (864 m) -4   - 1 2021-01-06 08:33:00
Ratitovec -4   5 8 2021-04-18 04:43:00
Ravne na Koroškem 5   - 1 2021-04-18 04:35:00
Rogaška Slatina 6   3 6 2021-04-18 04:44:00
Rogla -3   3 6 2021-04-18 04:44:00
Rogla (1492 m) -11   4 7 2016-01-18 10:32:00
Rudno polje -1   1 3 2021-04-18 04:44:00
Rudno polje (1347 m) -2   1 3 2015-10-20 07:36:00
Sevno 4   - - 2021-04-18 04:44:00
Slavnik 0   15 19 2021-04-18 04:44:00
Slovenj Gradec 5   2 - 2021-04-18 04:42:00
Slovenske Konjice 5   - - 2021-04-18 04:44:00
Sveti Trije Kralji na Pohorju -2   - - 2021-04-18 04:44:00
Sviščaki -2   7 12 2021-04-18 04:44:00
Šebreljski vrh 0   - - 2021-04-18 04:44:00
Šmartno pri Slovenj Gradcu 5   2 4 2021-04-18 04:44:00
Tatre 3   - - 2021-04-18 04:44:00
Tolmin - Volče 5   1 1 2021-04-18 04:44:00
Topol 3   - - 2021-04-18 04:44:00
Trbovlje 6   1 2 2021-04-18 04:37:00
Trebnje 6   - - 2021-04-18 04:44:00
Trije Kralji na Pohorju -5   - - 2021-01-15 12:03:00
Trojane - Limovce 3   3 5 1017 2021-04-18 04:44:00
Uršlja gora -4   2 6 2021-04-18 04:44:00
Vedrijan 8   - - 2021-04-18 04:44:00
Velenje 6   - - 2021-04-18 04:44:00
Velike Lašče 4   2 4 2021-04-18 04:44:00
Vogel -3   2 5 2021-04-18 04:44:00
Vojsko -2   - - 2021-04-17 08:42:00
Vrbanski plato -2   2 3 2016-12-07 11:23:00
Vrhnika 6   2 3 2021-04-18 04:44:00
Vršič -4   - - 2021-04-18 04:44:00
Zadlog 2   - - 2021-04-18 04:43:00
Zelenica -3   - - 2021-04-18 04:44:00
Zgornja Kapla 2   1 2 2021-04-18 04:43:00
Zgornja Radovna 0   - - 2021-04-18 04:44:00
Zgornja Sorica 1   - - 2021-04-18 04:44:00
Source: Slovenian Environmental Agency, meteo.si